When you browse on this site, cookies collect data to enhance your experience and personalize the content and advertising you see.
Visit our Privacy Policy to learn more. By continuing to use the site, you agree to this use of cookies and data.
  • In Latvia
  • List of Countries
  • For 7 days
  • Water Temperature
  • Satellite Maps
  • Weather Map
  • Weather Widgets
  • user-avatar
    Login

    Hourly Weather Brisbane

    Today, 22 July, Monday

    Time Temperature Precipitation Wind Pressure Humidity
    00:00 +14°C° 0 mm 1 mps 763 mmHg 79%
    01:00 +13°C° 0 mm 1 mps 763 mmHg 82%
    02:00 +13°C° 0 mm 1 mps 763 mmHg 82%
    03:00 +13°C° 0 mm 1 mps 763 mmHg 83%
    04:00 +13°C° 0 mm 1 mps 762 mmHg 85%
    05:00 +13°C° 0 mm 1 mps 762 mmHg 85%
    06:00 +12°C° 0 mm 1 mps 763 mmHg 86%
    07:00 +12°C° 0 mm 1 mps 763 mmHg 86%
    08:00 +15°C° 0 mm 1 mps 763 mmHg 76%
    09:00 +18°C° 0 mm 1 mps 763 mmHg 66%
    10:00 +22°C° 0 mm 1 mps 763 mmHg 55%
    11:00 +23°C° 0 mm 1 mps 762 mmHg 52%
    12:00 +24°C° 0 mm 1 mps 762 mmHg 48%
    13:00 +25°C° 0 mm 1 mps 761 mmHg 45%
    14:00 +24°C° 0 mm 2 mps 761 mmHg 48%
    15:00 +24°C° 0 mm 2 mps 761 mmHg 51%
    16:00 +22°C° 0 mm 3 mps 761 mmHg 54%
    17:00 +20°C° 0.1 mm 2 mps 761 mmHg 62%
    18:00 +19°C° 0.1 mm 2 mps 761 mmHg 70%
    19:00 +17°C° 0.1 mm 2 mps 762 mmHg 78%
    20:00 +17°C° 0 mm 2 mps 762 mmHg 79%
    21:00 +16°C° 0 mm 2 mps 763 mmHg 81%
    22:00 +15°C° 0 mm 1 mps 763 mmHg 83%
    23:00 +15°C° 0 mm 1 mps 763 mmHg 83%

    Tomorrow, 23 July, Tuesday

    Time Temperature Precipitation Wind Pressure Humidity
    00:00 +15°C° 0 mm 1 mps 763 mmHg 84%
    01:00 +14°C° 0 mm 1 mps 762 mmHg 85%
    02:00 +14°C° 0 mm 1 mps 763 mmHg 85%
    03:00 +14°C° 0 mm 1 mps 763 mmHg 86%
    04:00 +13°C° 0 mm 1 mps 763 mmHg 87%
    05:00 +13°C° 0 mm 1 mps 763 mmHg 87%
    06:00 +13°C° 0 mm 1 mps 763 mmHg 87%
    07:00 +13°C° 0 mm 1 mps 764 mmHg 87%
    08:00 +15°C° 0 mm 1 mps 764 mmHg 77%
    09:00 +19°C° 0 mm 1 mps 764 mmHg 67%
    10:00 +21°C° 0 mm 1 mps 764 mmHg 57%
    11:00 +23°C° 0 mm 1 mps 763 mmHg 50%
    12:00 +25°C° 0 mm 1 mps 763 mmHg 43%
    13:00 +26°C° 0 mm 1 mps 762 mmHg 35%
    14:00 +26°C° 0 mm 1 mps 762 mmHg 37%
    15:00 +26°C° 0 mm 2 mps 762 mmHg 39%
    16:00 +25°C° 0 mm 2 mps 762 mmHg 40%
    17:00 +23°C° 0 mm 2 mps 762 mmHg 47%
    18:00 +20°C° 0 mm 2 mps 763 mmHg 55%
    19:00 +18°C° 0 mm 2 mps 763 mmHg 62%
    20:00 +17°C° 0 mm 2 mps 763 mmHg 63%
    21:00 +17°C° 0 mm 2 mps 764 mmHg 65%
    22:00 +16°C° 0 mm 2 mps 764 mmHg 67%
    23:00 +16°C° 0 mm 1 mps 764 mmHg 67%

    Day after tomorrow, 24 July, Wednesday

    Time Temperature Precipitation Wind Pressure Humidity
    00:00 +15°C° 0 mm 1 mps 764 mmHg 67%
    01:00 +15°C° 0 mm 1 mps 764 mmHg 66%
    02:00 +14°C° 0 mm 1 mps 764 mmHg 67%
    03:00 +14°C° 0 mm 1 mps 764 mmHg 67%
    04:00 +13°C° 0 mm 1 mps 763 mmHg 68%
    05:00 +13°C° 0 mm 2 mps 764 mmHg 67%
    06:00 +13°C° 0 mm 2 mps 764 mmHg 66%
    07:00 +13°C° 0 mm 2 mps 765 mmHg 65%
    08:00 +15°C° 0 mm 2 mps 765 mmHg 56%
    09:00 +18°C° 0 mm 2 mps 765 mmHg 47%
    10:00 +20°C° 0 mm 2 mps 765 mmHg 38%
    11:00 +23°C° 0 mm 2 mps 764 mmHg 34%
    12:00 +24°C° 0 mm 2 mps 764 mmHg 29%
    13:00 +25°C° 0 mm 2 mps 763 mmHg 25%
    14:00 +25°C° 0 mm 2 mps 763 mmHg 27%
    15:00 +25°C° 0 mm 2 mps 762 mmHg 28%
    16:00 +24°C° 0 mm 2 mps 762 mmHg 29%
    17:00 +21°C° 0 mm 2 mps 763 mmHg 33%
    18:00 +19°C° 0 mm 2 mps 763 mmHg 36%
    19:00 +17°C° 0 mm 3 mps 764 mmHg 40%
    20:00 +17°C° 0 mm 3 mps 764 mmHg 42%
    21:00 +16°C° 0 mm 3 mps 765 mmHg 45%
    22:00 +16°C° 0 mm 3 mps 765 mmHg 48%
    23:00 +14°C° 0 mm 3 mps 765 mmHg 51%

    25 July, Thursday

    Time Temperature Precipitation Wind Pressure Humidity
    00:00 +13°C° 0 mm 3 mps 765 mmHg 55%
    01:00 +13°C° 0 mm 2 mps 764 mmHg 58%
    02:00 +12°C° 0 mm 3 mps 764 mmHg 60%
    03:00 +12°C° 0 mm 3 mps 764 mmHg 63%
    04:00 +11°C° 0 mm 3 mps 764 mmHg 65%
    05:00 +12°C° 0 mm 2 mps 765 mmHg 67%
    06:00 +12°C° 0 mm 2 mps 765 mmHg 68%
    07:00 +12°C° 0 mm 2 mps 766 mmHg 70%
    08:00 +14°C° 0 mm 2 mps 766 mmHg 67%
    09:00 +17°C° 0 mm 2 mps 766 mmHg 63%
    10:00 +19°C° 0 mm 3 mps 766 mmHg 60%
    11:00 +20°C° 0.1 mm 3 mps 765 mmHg 59%
    12:00 +20°C° 0.1 mm 3 mps 765 mmHg 59%
    13:00 +21°C° 0.1 mm 3 mps 764 mmHg 59%
    14:00 +21°C° 0.1 mm 3 mps 764 mmHg 61%
    15:00 +20°C° 0.1 mm 3 mps 764 mmHg 64%
    16:00 +20°C° 0.1 mm 3 mps 764 mmHg 66%
    17:00 +19°C° 0.1 mm 3 mps 764 mmHg 71%
    18:00 +17°C° 0.1 mm 3 mps 765 mmHg 77%
    19:00 +16°C° 0.1 mm 3 mps 765 mmHg 82%
    20:00 +16°C° 0.1 mm 3 mps 766 mmHg 83%
    21:00 +16°C° 0.1 mm 2 mps 766 mmHg 83%
    22:00 +16°C° 0.1 mm 2 mps 766 mmHg 84%
    23:00 +15°C° 0 mm 2 mps 766 mmHg 85%

    26 July, Friday

    Time Temperature Precipitation Wind Pressure Humidity
    00:00 +15°C° 0 mm 2 mps 765 mmHg 85%
    01:00 +14°C° 0 mm 2 mps 765 mmHg 86%
    02:00 +14°C° 0 mm 2 mps 765 mmHg 86%
    03:00 +14°C° 0 mm 1 mps 764 mmHg 87%
    04:00 +13°C° 0 mm 1 mps 764 mmHg 87%
    05:00 +13°C° 0 mm 1 mps 765 mmHg 87%
    06:00 +13°C° 0 mm 1 mps 765 mmHg 87%
    07:00 +13°C° 0 mm 1 mps 765 mmHg 87%
    08:00 +15°C° 0 mm 1 mps 765 mmHg 79%
    09:00 +18°C° 0 mm 1 mps 765 mmHg 70%
    10:00 +21°C° 0 mm 1 mps 765 mmHg 61%
    11:00 +22°C° 0 mm 1 mps 764 mmHg 57%
    12:00 +22°C° 0 mm 1 mps 764 mmHg 53%
    13:00 +23°C° 0 mm 1 mps 763 mmHg 49%
    14:00 +23°C° 0.1 mm 1 mps 763 mmHg 51%
    15:00 +22°C° 0.1 mm 1 mps 763 mmHg 53%
    16:00 +22°C° 0.1 mm 1 mps 763 mmHg 54%
    17:00 +21°C° 0 mm 1 mps 763 mmHg 61%
    18:00 +19°C° 0 mm 1 mps 763 mmHg 68%
    19:00 +17°C° 0 mm 2 mps 763 mmHg 75%
    20:00 +16°C° 0 mm 1 mps 764 mmHg 76%
    21:00 +16°C° 0 mm 1 mps 764 mmHg 78%
    22:00 +15°C° 0 mm 1 mps 764 mmHg 80%
    23:00 +15°C° 0 mm 1 mps 764 mmHg 81%

    27 July, Saturday

    Time Temperature Precipitation Wind Pressure Humidity
    00:00 +15°C° 0 mm 1 mps 764 mmHg 83%
    01:00 +14°C° 0 mm 1 mps 763 mmHg 84%
    02:00 +14°C° 0 mm 1 mps 763 mmHg 85%
    03:00 +14°C° 0 mm 1 mps 763 mmHg 86%
    04:00 +13°C° 0 mm 1 mps 763 mmHg 87%
    05:00 +13°C° 0 mm 1 mps 763 mmHg 87%
    06:00 +13°C° 0 mm 1 mps 764 mmHg 87%
    07:00 +13°C° 0 mm 1 mps 764 mmHg 86%
    08:00 +15°C° 0 mm 2 mps 764 mmHg 74%
    09:00 +17°C° 0 mm 2 mps 764 mmHg 62%
    10:00 +20°C° 0 mm 2 mps 764 mmHg 50%
    11:00 +21°C° 0 mm 2 mps 764 mmHg 44%
    12:00 +23°C° 0 mm 2 mps 763 mmHg 39%
    13:00 +24°C° 0 mm 2 mps 762 mmHg 34%
    14:00 +24°C° 0 mm 2 mps 762 mmHg 34%
    15:00 +24°C° 0 mm 2 mps 762 mmHg 34%
    16:00 +24°C° 0 mm 2 mps 762 mmHg 35%
    17:00 +20°C° 0 mm 2 mps 762 mmHg 44%
    18:00 +18°C° 0 mm 2 mps 763 mmHg 52%
    19:00 +16°C° 0 mm 2 mps 763 mmHg 61%
    20:00 +16°C° 0 mm 1 mps 764 mmHg 66%
    21:00 +15°C° 0 mm 1 mps 764 mmHg 71%
    22:00 +15°C° 0 mm 1 mps 764 mmHg 75%
    23:00 +14°C° 0 mm 1 mps 764 mmHg 76%
    Show more